Regional Weather Roundup
Issued by NWS Mobile, AL

Home | Current Version | Previous Version | Text Only | Print | Product List | Glossary On
Versions: 1 2 3 4 5 6 7 8 9 10 11 12 13 14 15 16 17 18 19 20 21 22 23 24 25 26 27 28 29 30 31 32 33 34 35 36 37 38 39 40 41 42 43 44 45 46 47 48 49 50
000
ASUS44 KMOB 020710
RWRMOB
REGIONAL WEATHER ROUNDUP
NATIONAL WEATHER SERVICE MOBILE AL
200 AM CDT SAT AUG 02 2014

NOTE: "FAIR" INDICATES FEW OR NO CLOUDS BELOW 12,000 FEET WITH NO
      SIGNIFICANT WEATHER AND/OR OBSTRUCTIONS TO VISIBILITY.

  * THESE STATIONS ARE PART OF THE UNIVERSITY OF SOUTH ALABAMA
    MESONET AND ARE NOT UNDER NWS OR FAA QUALITY CONTROL.

ALZ061>064-020800-
COASTAL ALABAMA

CITY           SKY/WX    TMP DP  RH WIND       PRES   REMARKS
MOBILE REG APT PTCLDY    72  71  97 NE3       29.99F
BROOKLEY FIELD PTCLDY    73  71  93 CALM      29.99F
USA CAMPUS*      N/A     72  70  94 CALM      29.98F
DOG RIVER*       N/A     73  72  94 CALM      29.99F


CITY           SKY/WX    TMP DP  RH WIND       PRES   REMARKS
MOUNT VERNON*    N/A     70  68  94 CALM      29.99F
SARALAND*      NOT AVBL
BAY MINETTE*   NOT AVBL
LOXLEY*          N/A    N/A N/A N/A CALM      29.99F
ROBERTSDALE*     N/A    N/A N/A N/A CALM      29.98F
FAIRHOPE*        N/A     72  72 100 CALM      29.98F
ELBERTA*         N/A     72  59  64 CALM      29.98
FOLEY*         NOT AVBL
GRAND BAY*       N/A     70  70 100 CALM      29.96F
DAUPHIN ISLND* NOT AVBL
BON SCOUR NWR* NOT AVBL
GULF SHORES    PTCLDY    70  69  96 CALM      29.98F

$$

ALZ051>060-020800-
INTERIOR SOUTHWEST AND SOUTH CENTRAL ALABAMA

CITY           SKY/WX    TMP DP  RH WIND       PRES   REMARKS
GREENVILLE     CLOUDY    73  70  90 CALM      30.00F
EVERGREEN      CLOUDY    75  72  90 CALM      30.00F
CASTLEBERRY*   NOT AVBL
ATMORE*          N/A     73  73 100 CALM      30.00F
DIXIE*         NOT AVBL
ANDALUSIA/OPP  CLOUDY    78  72  81 CALM      29.99F
ANDALUSIA*     NOT AVBL
FLORALA APT    CLOUDY    75  71  87 CALM      30.00F
FLORALA*         N/A     73  70  88 CALM      29.96F

$$

FLZ001>006-020800-
WESTERN FLORIDA PANHANDLE

CITY           SKY/WX    TMP DP  RH WIND       PRES   REMARKS
PENSACOLA      PTCLDY    73  70  90 N6        29.97F
NAS PENSACOLA  PTCLDY    74  72  93 N3        29.97F
MILTON         PTCLDY    73  69  87 CALM      29.98
WHTNG S FIELD  PTCLDY    77  70  79 NE5       29.98F


CITY           SKY/WX    TMP DP  RH WIND       PRES   REMARKS
WALNUT HILL*   NOT AVBL
JAY*           NOT AVBL
DUKE FIELD     PTCLDY    72  71  99 NW2       29.97F
CRESTVIEW      MOCLDY    73  71  93 CALM      29.99F
VALPARAISO     PTCLDY    74  69  83 N2        29.97F
DESTIN         PTCLDY    79  73  82 N3        29.97F

$$

MSZ076-079-020800-
INTERIOR SOUTHEAST MISSISSIPPI

CITY           SKY/WX    TMP DP  RH WIND       PRES   REMARKS
LEAKESVILLE*   NOT AVBL
AGRICOLA*      NOT AVBL

$$

MARINE OBSERVATIONS

STATION/POSITION TIME  TEMP    WIND        PRES    WAVE
                       AIR SEA DIR/SP/G            HT/PER
                 (UTC) (F)     (DEG/KT/KT) (MB)    (FT/S)
PASCAGOULA       0700   76      40/  3/  4 1014.8F
PETIT BOIS ISLND 0700   79      50/  6/  7 1015.2F
GRAND BAY        0600   75     360/  3     1017.0S
KATRINA CUT      0600   80      40/  6     1015.9S
CEDAR POINT      0500   77      10/  4     1015.9R
E DAUPHIN ISLAND 0700   81      50/  5/  6 1015.1F
MIDDLE BAY LIGHT 0600   80      30/  7     1014.6F
USCG MOBILE BAY  0700   77 82  350/  2/  3 1014.2F
STATE DOCKS      0700   78 82              1015.0F
MEAHER PARK      0600   77      10/  2     1015.2F
WEEKS BAY        0600   70                   N/A
FORT MORGAN      0700   80      70/  6/  7 1014.7F
12 S ORANGE BCH  0700   81 83  360/  8/ 10 1015.1F   0
PENSACOLA BAY    0700   80 84  360/  4/  5 1015.1F
64 S DAUPHIN ISL 0556   82 84   90/  2/  2 1015.1F
67 S FORT MORGAN 0600   82                 1014.9F

$$

SELECTED LOCATIONS ACROSS THE REGION

CITY           SKY/WX    TMP DP  RH WIND       PRES   REMARKS
NEW ORLEANS    CLOUDY    79  70  74 SE6       29.96F
GULFPORT       MOCLDY    77  69  76 CALM      29.97F
PASCAGOULA AP  PTCLDY    68  67  96 CALM      29.98F FOG
PASCAGOULA*      N/A     70  70 100 CALM      29.98F
HATTIESBURG    CLOUDY    74  71  91 CALM      30.00F
LAUREL         PTCLDY    73  68  83 NE3       30.01F
MERIDIAN       CLOUDY    72  68  87 CALM      30.00F
JACKSON        CLOUDY    73  71  93 CALM      30.01S
MONTGOMERY     CLOUDY    75  70  84 E6        30.01S
TROY           CLOUDY    73  70  90 NE3       30.01F
KINSTON*       NOT AVBL
GENEVA*          N/A     72  70  94 NE3       30.00F
ASHFORD*       NOT AVBL
DOTHAN         PTCLDY    73  70  90 NE7       30.03S
PANAMA CITY    LGT RAIN  73  69  87 CALM      29.96S

$$




USA.gov is the U.S. government's official web portal to all federal, state and local government web resources and services.